This is the latest recevied weather packets stored in our database for station/object WC4PEM-6. If no packets are shown the sender has not sent any weather packets the latest 1 day(s).
| Time | Temp. | Humidity | Pressure | Rain* | Wind** | Luminosity | Snow |
|---|---|---|---|---|---|---|---|
| 1777970005 | 19.44° C | 88% | 1013.8 hPa | 0 mm | 0.45 m/s, 79° | - | - |
| 1777969806 | 19.44° C | 88% | 1013.8 hPa | 0 mm | 0.45 m/s, 79° | - | - |
| 1777969713 | 19.44° C | 87% | 1013.7 hPa | 0 mm | 0.45 m/s, 86° | - | - |
| 1777969506 | 19.44° C | 87% | 1013.7 hPa | 0 mm | 0.45 m/s, 86° | - | - |
| 1777969292 | 19.44° C | 87% | 1013.8 hPa | 0 mm | 0.89 m/s, 93° | - | - |
| 1777969206 | 19.44° C | 87% | 1013.7 hPa | 0 mm | 0.89 m/s, 85° | - | - |
| 1777968906 | 19.44° C | 87% | 1013.8 hPa | 0 mm | 0.89 m/s, 93° | - | - |
| 1777968606 | 19.44° C | 87% | 1013.7 hPa | 0 mm | 0.89 m/s, 80° | - | - |
| 1777968514 | 19.44° C | 86% | 1013.7 hPa | 0 mm | 0.45 m/s, 76° | - | - |
| 1777968306 | 19.44° C | 86% | 1013.7 hPa | 0 mm | 0.45 m/s, 76° | - | - |
| 1777968015 | 19.44° C | 86% | 1013.8 hPa | 0 mm | 0.89 m/s, 93° | - | - |
| 1777968006 | 19.44° C | 86% | 1013.8 hPa | 0 mm | 0.45 m/s, 67° | - | - |
| 1777967706 | 19.44° C | 86% | 1013.8 hPa | 0 mm | 0.89 m/s, 93° | - | - |
| 1777967416 | 19.44° C | 86% | 1014.1 hPa | 0 mm | 0.89 m/s, 86° | - | - |
| 1777967406 | 19.44° C | 86% | 1014 hPa | 0 mm | 0.45 m/s, 90° | - | - |
| 1777967106 | 19.44° C | 86% | 1014.1 hPa | 0 mm | 0.89 m/s, 86° | - | - |
| 1777966806 | 19.44° C | 86% | 1013.8 hPa | 0 mm | 0.45 m/s, 205° | - | - |
| 1777966506 | 19.44° C | 86% | 1013.9 hPa | 0 mm | 0.45 m/s, 79° | - | - |
| 1777966206 | 19.44° C | 86% | 1014.1 hPa | 0 mm | 0.89 m/s, 85° | - | - |
| 1777966196 | 19.44° C | 85% | 1014.1 hPa | 0 mm | 0.89 m/s, 76° | - | - |
| 1777965906 | 19.44° C | 85% | 1014.1 hPa | 0 mm | 0.89 m/s, 76° | - | - |
| 1777965714 | 19.44° C | 85% | 1013.8 hPa | 0 mm | 0.45 m/s, 80° | - | - |
| 1777965606 | 19.44° C | 85% | 1014.1 hPa | 0 mm | 0.45 m/s, 88° | - | - |
| 1777965494 | 19.44° C | 85% | 1013.9 hPa | 0 mm | 0.45 m/s, 80° | - | - |
| 1777965306 | 19.44° C | 85% | 1013.9 hPa | 0 mm | 0.45 m/s, 80° | - | - |
* Rain latest hour (hover to see other rain measurements)
** Current wind speed in m/s (hover to see current wind gust speed)